Flag for Germany Weather past 2 weeks in Görlitz, Saxony, Germany

Now
26 °F

Snow flurries. Low clouds.


Feels Like: 22 °F
Forecast: 18 / 24 °F
Wind: 3 mph from Northeast

Location: Goerlitz

Current Time: Dec 29, 2014 at 12:06:28 PM

Latest Report: Dec 29, 2014 at 11:00 AM


Visibility: 4 mi

Pressure: 30.29 "Hg

Humidity: 95%

Dew point: 25 °F

Location of GörlitzLocation

Historic Weather in Görlitz — Graph

°F

Görlitz temperature yesterday

Maximum temperature yesterday: 22 °F (at 11:00 PM)
Minimum temperature yesterday: 15 °F (at 4:00 AM)
Average temperature yesterday: 17 °F

Past Weeks' High & Low Weather Summary

 TemperatureHumidityPressure
High54 °F (Dec 19, 4:00 AM)99% (Dec 14, 7:00 PM)30.37 "Hg (Dec 14, 7:00 PM)
Low15 °F (Dec 28, 4:00 AM)65% (Dec 20, 11:00 AM)29.72 "Hg (Dec 17, 7:00 PM)
Average39 °F84%30.00 "Hg
* Reported Dec 14 11:00 AM — Dec 29 11:00 AM, Görlitz, Weather by CustomWeather, © 2014

Note: Actual official high and low records may vary slightly from our data, if they occured in-between our weather recording intervals... More about our weather records

Advertising

Görlitz weather history for previous 24 hours

 ConditionsComfort  
Time TempWeatherWind HumidityBarometerVisibility
11:00 AM
Dec 29
26 °FSnow flurries. Low clouds.3 mph95%30.29 "Hg4 mi
10:00 AM25 °FSnow flurries. Low clouds.1 mph96%30.27 "Hg3 mi
9:00 AM25 °FLight snow. Low clouds.1 mph97%30.25 "Hg2 mi
8:00 AM25 °FLight snow. Low clouds.1 mph97%30.24 "Hg2 mi
7:00 AM25 °FSnow. Low clouds.1 mph97%30.24 "Hg1 mi
6:00 AM25 °FLight snow. Low clouds.2 mph97%30.24 "Hg1 mi
5:00 AM25 °FLight snow. Low clouds.2 mph96%30.27 "Hg1 mi
4:00 AM26 °FLow clouds.5 mph94%30.29 "Hg5 mi
3:00 AM25 °FLight snow. Low clouds.7 mph96%30.31 "Hg2 mi
2:00 AM24 °FLight snow. Low clouds.5 mph96%30.31 "Hg2 mi
1:00 AM24 °FLight snow. Low clouds.3 mph94%30.33 "Hg4 mi
12:00 AM23 °FLight snow. Low clouds.5 mph96%30.36 "Hg3 mi
11:00 PM
Dec 28
22 °FFog.5 mph95%30.36 "Hg4 mi
10:00 PM21 °FFog.3 mph96%30.37 "Hg3 mi
9:00 PM20 °FFog.3 mph95%30.37 "Hg3 mi
8:00 PM21 °FFog.2 mph92%30.36 "Hg4 mi
7:00 PM20 °FFog.2 mph91%30.34 "Hg4 mi
6:00 PM19 °FOvercast.2 mph89%30.32 "Hg5 mi
5:00 PM19 °FOvercast.3 mph88%30.30 "Hg6 mi
4:00 PM18 °FOvercast.2 mph87%30.28 "Hg4 mi
3:00 PM17 °FPartly sunny.1 mph82%30.25 "Hg6 mi
2:00 PM16 °FOvercast.2 mph82%30.23 "Hg6 mi
1:00 PM16 °FOvercast.2 mph83%30.22 "Hg6 mi
12:00 PM16 °FOvercast.2 mph78%30.21 "Hg6 mi
Weather by CustomWeather, © 2014

See weather overviewHow to use our weather pages